Location: Banska Bystrica
(48.7333°N, 19.1500°E)
Time: 01:19:47
(UTC+01:00)

ISS - Pass Details

Date: 01 February 2021
Orbit: 417 x 422 km, 51.6° (Epoch: 06 March)

Event Time Altitude Azimuth Distance (km) Brightness Sun altitude
Rises 18:53:22 0° 290° (WNW) 2,376 1.3 -21.8°
Reaches altitude 10° 18:55:31 10° 285° (WNW) 1,510 0.1 -22.2°
Enters shadow 18:58:32 45° 226° (SW) 584 -2.8 -22.7°
